{"data":{"norad_id":62814,"intl_designator":"2025-018J","name":"STARLINK-32843","alt_names":[],"object_type":"PAYLOAD","status":"ACTIVE","operator":null,"country":"US","launch_date":"2025-01-24","launch_site_code":"AFWTR","launch_vehicle":null,"mission":null,"orbit_class":"UNKNOWN","rcs_meters":null,"size_class":null,"mass_kg":null,"dimensions":null,"purposes":["comms"],"wikipedia_slug":null,"has_3d_model":false,"image_url":null,"decayed_at":null,"tle_current":{"epoch":"2026-09-21T22:13:40.776960Z","epoch_age_seconds":45020,"freshness":"FRESH","line1":"1 62814U 25018J   26264.92616640  .00008583  00000+0  28795-3 0  9998","line2":"2 62814  53.1587 116.6418 0001215 110.9443 249.1688 15.31710108 93232","mean_motion":15.31710108,"eccentricity":0.0001215,"inclination_deg":53.1587,"raan_deg":116.6418,"arg_perigee_deg":110.9443,"mean_anomaly_deg":249.1688,"bstar":0.00028795,"rev_number":9323,"period_min":94.012567553024,"perigee_km":469.87772907535,"apogee_km":471.5419988633,"semimajor_km":6848.8468639693,"source":"CELESTRAK","updated_at":"2026-09-22T09:00:49.668157Z"}}}